{"data":{"norad_id":58442,"epoch":"2026-05-24T23:15:47.265984Z","epoch_age_seconds":77630,"freshness":"FRESH","line1":"1 58442U 23183F   26144.96929706  .00001384  00000+0  59799-4 0  9993","line2":"2 58442  43.0045 330.5493 0002017 249.9537 110.1098 15.27586431138405","mean_motion":15.27586431,"eccentricity":0.0002017,"inclination_deg":43.0045,"raan_deg":330.5493,"arg_perigee_deg":249.9537,"mean_anomaly_deg":110.1098,"bstar":5.9799e-5,"rev_number":13840,"period_min":94.266351859209,"perigee_km":481.64594202817,"apogee_km":484.41373673117,"semimajor_km":6861.1668393797,"source":"CELESTRAK","updated_at":"2026-05-25T13:38:18.622738Z"}}